Location: La Comballaz
(46.3780°N, 7.0817°E)
Time: 03:44:39
(UTC+00:00)

Envisat - Pass Details

Date: 13 December 2021
Orbit: 764 x 766 km, 98.2° (Epoch: 16 January)

Event Time Altitude Azimuth Distance (km) Brightness Sun altitude
Rises 04:55:54 0° 10° (N) 3,244 6.2 -21.5°
Reaches altitude 10° 04:58:14 10° 8° (N) 2,313 5.4 -21.2°
Maximum altitude 05:03:16 66° 288° (WNW) 838 2.9 -20.3°
Drops below altitude 10° 05:08:17 10° 207° (SSW) 2,295 5.3 -19.5°
Sets 05:10:35 0° 204° (SSW) 3,217 6.1 -19.1°
